Location: St. Louis
(38.6270°N, 90.1994°W)
Time: 20:43:38
(UTC-06:00)

Altair - Pass Details

Date: 05 December 2021
Orbit: 1501 x 1683 km, 47.2° (Epoch: 26 January)

Event Time Altitude Azimuth Distance (km) Brightness Sun altitude
Rises 21:00:17 0° 300° (WNW) 4,668 10.6 -50.2°
Reaches altitude 10° 21:03:19 10° 299° (WNW) 3,671 9.9 -50.7°
Enters shadow 21:07:10 29° 297° (WNW) 2,481 8.8 -51.5°
